This demonstration page uses our WeatherBlox Daily Observations layout. Learn more.

Left ArrowRight Arrow

36.17497, -115.13722

Hourly Observations for January 29, 2016

Temp ( °F °C ) Dew Point ( °F °C ) Humidity (%) Winds ( mph kmh ) Pressure ( in mb ) Visibility ( mi km ) Precip ( " mm )
12:53 am 00:53 Clear 47 8.3 26 -3.3 44 44 W 3 6 30.17 1022 10 16.0934 0 0
1:53 am 01:53 Clear 47 8.3 26 -3.3 44 44 NW 7 11 30.16 1021 10 16.0934 0 0
2:53 am 02:53 Clear 47 8.3 24 -4.4 41 41 NW 3 6 30.15 1021 10 16.0934 0 0
3:53 am 03:53 Clear 46 7.8 24 -4.4 42 42 NW 3 6 30.15 1021 10 16.0934 0 0
4:53 am 04:53 Clear 44 6.7 24 -4.4 45 45 NW 6 9 30.15 1021 10 16.0934 0 0
5:53 am 05:53 Clear 44 6.7 24 -4.4 45 45 N 5 7 30.15 1021 10 16.0934 0 0
6:53 am 06:53 Sunny 44 6.7 24 -4.4 45 45 N 8 13 30.17 1022 10 16.0934 0 0
7:53 am 07:53 Sunny 46 7.8 25 -3.9 44 44 WNW 5 7 30.17 1022 10 16.0934 0 0
8:53 am 08:53 Sunny 47 8.3 27 -2.8 46 46 S 3 6 30.19 1022 10 16.0934 0 0
9:53 am 09:53 Mostly Sunny 53 11.7 26 -3.3 35 35 SE 5 7 30.17 1022 10 16.0934 0 0
10:53 am 10:53 undefined 56 13.3 25 -3.9 30 30 SE 6 9 30.15 1021 N/A 0 0
11:53 am 11:53 undefined 58 14.4 23 -5 26 26 SE 7 11 30.11 1020 10 16.0934 0 0
12:53 pm 12:53 Sunny 60 15.6 23 -5 24 24 ESE 6 9 30.08 1019 10 16.0934 0 0
1:53 pm 13:53 Sunny 61 16.1 22 -5.6 22 22 Calm 30.05 1018 10 16.0934 0 0
2:53 pm 14:53 Sunny 62 16.7 22 -5.6 21 21 ESE 7 11 30.02 1017 10 16.0934 0 0
3:53 pm 15:53 Sunny 62 16.7 22 -5.6 21 21 Calm 30.03 1017 10 16.0934 0 0
4:53 pm 16:53 Sunny 61 16.1 23 -5 23 23 SSE 3 6 30.03 1017 10 16.0934 0 0
5:53 pm 17:53 Clear 59 15 23 -5 25 25 Calm 30.02 1017 10 16.0934 0 0
6:53 pm 18:53 Clear 55 12.8 25 -3.9 31 31 Calm 30.02 1017 10 16.0934 0 0
7:53 pm 19:53 Clear 53 11.7 25 -3.9 34 34 Calm 30 1016 10 16.0934 0 0
8:53 pm 20:53 Clear 53 11.7 26 -3.3 35 35 Calm 30 1016 10 16.0934 0 0
9:53 pm 21:53 Clear 51 10.6 27 -2.8 39 39 Calm 29.97 1015 10 16.0934 0 0
10:53 pm 22:53 Clear 50 10 28 -2.2 43 43 NW 6 9 29.96 1015 10 16.0934 0 0
11:53 pm 23:53 Clear 49 9.4 27 -2.8 43 43 NW 5 7 29.94 1014 10 16.0934 0 0

Powered by AerisWeather